Rina Amoretti — IBRR — position and weather

sailwx.info

Track history (hours):
 
Tides and Currents Weather Stations Pressure Air Temp Water Temp Dewpoint Dewpoint Depression Visibility Wind Speed Wind Dir Waves Ship Positions

Rina Amoretti

Last reported at 2014-Jul-23 19:33 UTC. Time now 2014-Jul-23 20:12 UTC.
Position N 38°07' E 013°29'.

Length 120 m; draft 8 m.

Type: Ship (hazmat cat A). MMSI: 247197000.

Date/timePositionNaut miles runAvg speedWind from/ knotsBaromVisibWave heightAir tempDewpointWater temp
2014-Jul-23 19:33N 38°07' E 013°29'0 0.0
2014-Jul-23 18:33N 38°07' E 013°29'0 0.0
2014-Jul-23 17:30N 38°07' E 013°29'0 0.0
2014-Jul-23 16:33N 38°07' E 013°29'0 0.0
2014-Jul-23 15:33N 38°07' E 013°29'0 0.0
2014-Jul-23 14:33N 38°07' E 013°29'0 0.0
2014-Jul-23 13:33N 38°07' E 013°29'0 0.0
2014-Jul-23 12:33N 38°07' E 013°29'0 0.0
2014-Jul-23 11:33N 38°07' E 013°29'0 0.0
2014-Jul-23 10:33N 38°07' E 013°29'0 0.0
2014-Jul-23 09:33N 38°07' E 013°29'0 0.0
2014-Jul-23 08:33N 38°07' E 013°29'0 0.0
2014-Jul-23 07:33N 38°07' E 013°29'0 0.0
2014-Jul-23 06:33N 38°07' E 013°29'0 0.0
2014-Jul-23 05:33N 38°07' E 013°29'0 0.0
2014-Jul-23 04:33N 38°07' E 013°29'0 0.0
2014-Jul-23 03:33N 38°07' E 013°29'0 0.0
2014-Jul-23 02:33N 38°07' E 013°29'0 0.0
2014-Jul-23 01:33N 38°07' E 013°29'0 0.0
2014-Jul-23 00:33N 38°07' E 013°29'0 0.0
2014-Jul-22 23:33N 38°07' E 013°29'0 0.0
2014-Jul-22 22:32N 38°07' E 013°29'0 0.0
2014-Jul-22 21:32N 38°07' E 013°29'0 0.0
2014-Jul-22 20:32N 38°07' E 013°29'0 0.0
2014-Jul-22 19:32N 38°07' E 013°29'0 0.0
2014-Jul-22 18:32N 38°07' E 013°29'0 0.0
2014-Jul-22 17:32N 38°07' E 013°29'0 0.0
2014-Jul-22 16:32N 38°07' E 013°29'0 0.0
2014-Jul-22 15:32N 38°07' E 013°29'0 0.0
2014-Jul-22 14:32N 38°07' E 013°29'2 1.6
2014-Jul-22 13:33N 38°07' E 013°27'0 0.4
2014-Jul-22 12:33N 38°07' E 013°26'0 0.0
2014-Jul-22 11:33N 38°07' E 013°26'0 0.0
2014-Jul-22 10:33N 38°07' E 013°26'0 0.0
2014-Jul-22 09:33N 38°07' E 013°26'0 0.0
2014-Jul-22 08:33N 38°07' E 013°26'0 0.0
2014-Jul-22 07:33N 38°07' E 013°26'0 0.0
2014-Jul-22 06:32N 38°07' E 013°26'0 0.0
2014-Jul-22 05:32N 38°07' E 013°26'0 0.0
2014-Jul-22 04:32N 38°07' E 013°26'0 0.0
2014-Jul-22 03:32N 38°07' E 013°26'0 0.0
2014-Jul-22 02:32N 38°07' E 013°26'0 0.0
2014-Jul-22 01:32N 38°07' E 013°26'0 0.0
2014-Jul-22 00:32N 38°07' E 013°26'0 0.0
2014-Jul-21 23:32N 38°07' E 013°26'0 0.0
2014-Jul-21 22:32N 38°07' E 013°26'0 0.0
2014-Jul-21 21:32N 38°07' E 013°26'0 0.0
2014-Jul-21 20:32N 38°07' E 013°26'0 0.1
2014-Jul-21 20:17N 38°07' E 013°26'0 0.0
2014-Jul-21 19:32N 38°07' E 013°26'0 0.0
2014-Jul-21 18:32N 38°07' E 013°26'0 0.0
2014-Jul-21 17:32N 38°07' E 013°26'0 0.0
2014-Jul-21 16:32N 38°07' E 013°26'0 0.0
2014-Jul-21 15:32N 38°07' E 013°26'0 0.1
2014-Jul-21 14:32N 38°07' E 013°26'0 0.0
2014-Jul-21 13:32N 38°07' E 013°26'0 0.0
2014-Jul-21 12:32N 38°07' E 013°26'0 0.0
2014-Jul-21 11:32N 38°07' E 013°26'0 0.1
2014-Jul-21 10:32N 38°07' E 013°26'0 0.0
2014-Jul-21 09:32N 38°07' E 013°26'0 0.1
2014-Jul-21 08:33N 38°07' E 013°26'1 0.9
2014-Jul-21 07:32N 38°06' E 013°26'0 0.0
2014-Jul-21 06:32N 38°06' E 013°26'0 0.2
2014-Jul-21 05:32N 38°06' E 013°26'1 0.7
2014-Jul-21 04:33N 38°07' E 013°26'0 0.1
2014-Jul-21 03:33N 38°07' E 013°26'0 0.1
2014-Jul-21 02:33N 38°07' E 013°26'0 0.0
2014-Jul-21 01:33N 38°07' E 013°26'0 0.0
2014-Jul-21 00:27N 38°07' E 013°26'0 0.0
2014-Jul-20 23:33N 38°07' E 013°26'0 0.1
2014-Jul-20 22:33N 38°07' E 013°26'7 7.3
2014-Jul-20 21:33N 38°10' E 013°35'1313.5
2014-Jul-20 20:33N 38°11' E 013°52'1313.5
2014-Jul-20 19:33N 38°13' E 014°09'1413.6
2014-Jul-20 18:34N 38°14' E 014°26'1413.9
2014-Jul-20 17:33N 38°15' E 014°44'1414.1
2014-Jul-20 16:33N 38°17' E 015°01'1413.8
2014-Jul-20 15:33N 38°19' E 015°19'1313.2
2014-Jul-20 14:32N 38°20' E 015°36'110 2.2
2014-Jul-18 11:32N 39°59' E 014°33'1413.6
2014-Jul-18 10:29N 40°11' E 014°23'1313.6
2014-Jul-18 09:33N 40°22' E 014°15'1313.4
2014-Jul-18 08:33N 40°35' E 014°09'1313.2
2014-Jul-18 07:33N 40°47' E 014°17'4 3.2
2014-Jul-18 06:25N 40°50' E 014°18'0 0.0
2014-Jul-18 05:22N 40°50' E 014°18'0 0.0
2014-Jul-18 04:16N 40°50' E 014°18'0 0.0
2014-Jul-18 03:31N 40°50' E 014°18'0 0.0
2014-Jul-18 02:31N 40°50' E 014°18'0 0.0
2014-Jul-18 01:19N 40°50' E 014°18'0 0.0
2014-Jul-17 23:25N 40°50' E 014°18'0 0.0
2014-Jul-17 22:31N 40°50' E 014°18'0 0.0
2014-Jul-17 21:31N 40°50' E 014°18'0 0.0
2014-Jul-17 20:31N 40°50' E 014°18'0 0.0
2014-Jul-17 19:31N 40°50' E 014°18'0 0.0
2014-Jul-17 18:28N 40°50' E 014°18'0 0.0
2014-Jul-17 17:28N 40°50' E 014°18'0 0.0
2014-Jul-17 16:31N 40°50' E 014°18'0 0.0
2014-Jul-17 15:31N 40°50' E 014°18'0 0.0
2014-Jul-17 14:31N 40°50' E 014°18'0 0.0
2014-Jul-17 13:31N 40°50' E 014°18'0 0.0
2014-Jul-17 12:31N 40°50' E 014°18'0 0.0
2014-Jul-17 11:33N 40°50' E 014°18'2 2.1
2014-Jul-17 10:31N 40°48' E 014°19'0 0.0
2014-Jul-17 09:25N 40°48' E 014°19'0 0.0
2014-Jul-17 08:31N 40°48' E 014°19'0 0.0
2014-Jul-17 07:18N 40°48' E 014°19'4 5.2
2014-Jul-17 06:34N 40°45' E 014°16'1313.0
2014-Jul-17 05:34N 40°33' E 014°08'1313.1
2014-Jul-17 04:33N 40°22' E 014°16'1313.3
2014-Jul-17 03:33N 40°10' E 014°24'1413.4
2014-Jul-17 02:32N 39°59' E 014°34'108 2.4
2014-Jul-15 06:15N 38°20' E 015°30'913.6
2014-Jul-15 05:33N 38°19' E 015°18'5613.6
2014-Jul-15 01:26N 38°12' E 014°06'1213.7
2014-Jul-15 00:33N 38°11' E 013°51'1413.6
2014-Jul-14 23:34N 38°09' E 013°34'7 7.1
2014-Jul-14 22:33N 38°06' E 013°26'0 0.0
2014-Jul-14 21:31N 38°06' E 013°26'0 0.0
2014-Jul-14 20:31N 38°06' E 013°26'0 0.0
2014-Jul-14 19:31N 38°06' E 013°26'0 0.0
2014-Jul-14 18:31N 38°06' E 013°26'0 0.0
2014-Jul-14 17:31N 38°06' E 013°26'0 0.0
2014-Jul-14 16:31N 38°06' E 013°26'0 0.0
2014-Jul-14 15:31N 38°06' E 013°26'0 0.0
2014-Jul-14 14:31N 38°06' E 013°26'0 0.0
2014-Jul-14 13:31N 38°06' E 013°26'0 0.0
2014-Jul-14 12:31N 38°06' E 013°26'0 0.0
2014-Jul-14 11:31N 38°06' E 013°26'0 0.0
2014-Jul-14 10:31N 38°06' E 013°26'0 0.0
2014-Jul-14 09:31N 38°06' E 013°26'0 0.0
2014-Jul-14 08:31N 38°06' E 013°26'0 0.0
2014-Jul-14 07:31N 38°06' E 013°26'1 0.8
2014-Jul-14 06:33N 38°06' E 013°27'1 1.4
2014-Jul-14 05:33N 38°07' E 013°28'2 2.1
2014-Jul-14 04:34N 38°09' E 013°30'7 7.4
2014-Jul-14 03:33N 38°10' E 013°39'1111.2
2014-Jul-14 02:33N 38°11' E 013°53'1211.2
2014-Jul-14 01:31N 38°12' E 014°08'  
Track history (hours):
 
Tides and Currents Weather Stations Pressure Air Temp Water Temp Dewpoint Dewpoint Depression Visibility Wind Speed Wind Dir Waves Ship Positions

Rina Amoretti

Last reported at 2014-Jul-23 19:33 UTC. Time now 2014-Jul-23 20:12 UTC.
Position N 38°07' E 013°29'.

Length 120 m; draft 8 m.

Type: Ship (hazmat cat A). MMSI: 247197000.

Date/timePositionNaut miles runAvg speedWind from/ knotsBaromVisibWave heightAir tempDewpointWater temp
2014-Jul-23 19:33N 38°07' E 013°29'0 0.0
2014-Jul-23 18:33N 38°07' E 013°29'0 0.0
2014-Jul-23 17:30N 38°07' E 013°29'0 0.0
2014-Jul-23 16:33N 38°07' E 013°29'0 0.0
2014-Jul-23 15:33N 38°07' E 013°29'0 0.0
2014-Jul-23 14:33N 38°07' E 013°29'0 0.0
2014-Jul-23 13:33N 38°07' E 013°29'0 0.0
2014-Jul-23 12:33N 38°07' E 013°29'0 0.0
2014-Jul-23 11:33N 38°07' E 013°29'0 0.0
2014-Jul-23 10:33N 38°07' E 013°29'0 0.0
2014-Jul-23 09:33N 38°07' E 013°29'0 0.0
2014-Jul-23 08:33N 38°07' E 013°29'0 0.0
2014-Jul-23 07:33N 38°07' E 013°29'0 0.0
2014-Jul-23 06:33N 38°07' E 013°29'0 0.0
2014-Jul-23 05:33N 38°07' E 013°29'0 0.0
2014-Jul-23 04:33N 38°07' E 013°29'0 0.0
2014-Jul-23 03:33N 38°07' E 013°29'0 0.0
2014-Jul-23 02:33N 38°07' E 013°29'0 0.0
2014-Jul-23 01:33N 38°07' E 013°29'0 0.0
2014-Jul-23 00:33N 38°07' E 013°29'0 0.0
2014-Jul-22 23:33N 38°07' E 013°29'0 0.0
2014-Jul-22 22:32N 38°07' E 013°29'0 0.0
2014-Jul-22 21:32N 38°07' E 013°29'0 0.0
2014-Jul-22 20:32N 38°07' E 013°29'0 0.0
2014-Jul-22 19:32N 38°07' E 013°29'0 0.0
2014-Jul-22 18:32N 38°07' E 013°29'0 0.0
2014-Jul-22 17:32N 38°07' E 013°29'0 0.0
2014-Jul-22 16:32N 38°07' E 013°29'0 0.0
2014-Jul-22 15:32N 38°07' E 013°29'0 0.0
2014-Jul-22 14:32N 38°07' E 013°29'2 1.6
2014-Jul-22 13:33N 38°07' E 013°27'0 0.4
2014-Jul-22 12:33N 38°07' E 013°26'0 0.0
2014-Jul-22 11:33N 38°07' E 013°26'0 0.0
2014-Jul-22 10:33N 38°07' E 013°26'0 0.0
2014-Jul-22 09:33N 38°07' E 013°26'0 0.0
2014-Jul-22 08:33N 38°07' E 013°26'0 0.0
2014-Jul-22 07:33N 38°07' E 013°26'0 0.0
2014-Jul-22 06:32N 38°07' E 013°26'0 0.0
2014-Jul-22 05:32N 38°07' E 013°26'0 0.0
2014-Jul-22 04:32N 38°07' E 013°26'0 0.0
2014-Jul-22 03:32N 38°07' E 013°26'0 0.0
2014-Jul-22 02:32N 38°07' E 013°26'0 0.0
2014-Jul-22 01:32N 38°07' E 013°26'0 0.0
2014-Jul-22 00:32N 38°07' E 013°26'0 0.0
2014-Jul-21 23:32N 38°07' E 013°26'0 0.0
2014-Jul-21 22:32N 38°07' E 013°26'0 0.0
2014-Jul-21 21:32N 38°07' E 013°26'0 0.0
2014-Jul-21 20:32N 38°07' E 013°26'0 0.1
2014-Jul-21 20:17N 38°07' E 013°26'0 0.0
2014-Jul-21 19:32N 38°07' E 013°26'0 0.0
2014-Jul-21 18:32N 38°07' E 013°26'0 0.0
2014-Jul-21 17:32N 38°07' E 013°26'0 0.0
2014-Jul-21 16:32N 38°07' E 013°26'0 0.0
2014-Jul-21 15:32N 38°07' E 013°26'0 0.1
2014-Jul-21 14:32N 38°07' E 013°26'0 0.0
2014-Jul-21 13:32N 38°07' E 013°26'0 0.0
2014-Jul-21 12:32N 38°07' E 013°26'0 0.0
2014-Jul-21 11:32N 38°07' E 013°26'0 0.1
2014-Jul-21 10:32N 38°07' E 013°26'0 0.0
2014-Jul-21 09:32N 38°07' E 013°26'0 0.1
2014-Jul-21 08:33N 38°07' E 013°26'1 0.9
2014-Jul-21 07:32N 38°06' E 013°26'0 0.0
2014-Jul-21 06:32N 38°06' E 013°26'0 0.2
2014-Jul-21 05:32N 38°06' E 013°26'1 0.7
2014-Jul-21 04:33N 38°07' E 013°26'0 0.1
2014-Jul-21 03:33N 38°07' E 013°26'0 0.1
2014-Jul-21 02:33N 38°07' E 013°26'0 0.0
2014-Jul-21 01:33N 38°07' E 013°26'0 0.0
2014-Jul-21 00:27N 38°07' E 013°26'0 0.0
2014-Jul-20 23:33N 38°07' E 013°26'0 0.1
2014-Jul-20 22:33N 38°07' E 013°26'7 7.3
2014-Jul-20 21:33N 38°10' E 013°35'1313.5
2014-Jul-20 20:33N 38°11' E 013°52'1313.5
2014-Jul-20 19:33N 38°13' E 014°09'1413.6
2014-Jul-20 18:34N 38°14' E 014°26'1413.9
2014-Jul-20 17:33N 38°15' E 014°44'1414.1
2014-Jul-20 16:33N 38°17' E 015°01'1413.8
2014-Jul-20 15:33N 38°19' E 015°19'1313.2
2014-Jul-20 14:32N 38°20' E 015°36'110 2.2
2014-Jul-18 11:32N 39°59' E 014°33'1413.6
2014-Jul-18 10:29N 40°11' E 014°23'1313.6
2014-Jul-18 09:33N 40°22' E 014°15'1313.4
2014-Jul-18 08:33N 40°35' E 014°09'1313.2
2014-Jul-18 07:33N 40°47' E 014°17'4 3.2
2014-Jul-18 06:25N 40°50' E 014°18'0 0.0
2014-Jul-18 05:22N 40°50' E 014°18'0 0.0
2014-Jul-18 04:16N 40°50' E 014°18'0 0.0
2014-Jul-18 03:31N 40°50' E 014°18'0 0.0
2014-Jul-18 02:31N 40°50' E 014°18'0 0.0
2014-Jul-18 01:19N 40°50' E 014°18'0 0.0
2014-Jul-17 23:25N 40°50' E 014°18'0 0.0
2014-Jul-17 22:31N 40°50' E 014°18'0 0.0
2014-Jul-17 21:31N 40°50' E 014°18'0 0.0
2014-Jul-17 20:31N 40°50' E 014°18'0 0.0
2014-Jul-17 19:31N 40°50' E 014°18'0 0.0
2014-Jul-17 18:28N 40°50' E 014°18'0 0.0
2014-Jul-17 17:28N 40°50' E 014°18'0 0.0
2014-Jul-17 16:31N 40°50' E 014°18'0 0.0
2014-Jul-17 15:31N 40°50' E 014°18'0 0.0
2014-Jul-17 14:31N 40°50' E 014°18'0 0.0
2014-Jul-17 13:31N 40°50' E 014°18'0 0.0
2014-Jul-17 12:31N 40°50' E 014°18'0 0.0
2014-Jul-17 11:33N 40°50' E 014°18'2 2.1
2014-Jul-17 10:31N 40°48' E 014°19'0 0.0
2014-Jul-17 09:25N 40°48' E 014°19'0 0.0
2014-Jul-17 08:31N 40°48' E 014°19'0 0.0
2014-Jul-17 07:18N 40°48' E 014°19'4 5.2
2014-Jul-17 06:34N 40°45' E 014°16'1313.0
2014-Jul-17 05:34N 40°33' E 014°08'1313.1
2014-Jul-17 04:33N 40°22' E 014°16'1313.3
2014-Jul-17 03:33N 40°10' E 014°24'1413.4
2014-Jul-17 02:32N 39°59' E 014°34'108 2.4
2014-Jul-15 06:15N 38°20' E 015°30'913.6
2014-Jul-15 05:33N 38°19' E 015°18'5613.6
2014-Jul-15 01:26N 38°12' E 014°06'1213.7
2014-Jul-15 00:33N 38°11' E 013°51'1413.6
2014-Jul-14 23:34N 38°09' E 013°34'7 7.1
2014-Jul-14 22:33N 38°06' E 013°26'0 0.0
2014-Jul-14 21:31N 38°06' E 013°26'0 0.0
2014-Jul-14 20:31N 38°06' E 013°26'0 0.0
2014-Jul-14 19:31N 38°06' E 013°26'0 0.0
2014-Jul-14 18:31N 38°06' E 013°26'0 0.0
2014-Jul-14 17:31N 38°06' E 013°26'0 0.0
2014-Jul-14 16:31N 38°06' E 013°26'0 0.0
2014-Jul-14 15:31N 38°06' E 013°26'0 0.0
2014-Jul-14 14:31N 38°06' E 013°26'0 0.0
2014-Jul-14 13:31N 38°06' E 013°26'0 0.0
2014-Jul-14 12:31N 38°06' E 013°26'0 0.0
2014-Jul-14 11:31N 38°06' E 013°26'0 0.0
2014-Jul-14 10:31N 38°06' E 013°26'0 0.0
2014-Jul-14 09:31N 38°06' E 013°26'0 0.0
2014-Jul-14 08:31N 38°06' E 013°26'0 0.0
2014-Jul-14 07:31N 38°06' E 013°26'1 0.8
2014-Jul-14 06:33N 38°06' E 013°27'1 1.4
2014-Jul-14 05:33N 38°07' E 013°28'2 2.1
2014-Jul-14 04:34N 38°09' E 013°30'7 7.4
2014-Jul-14 03:33N 38°10' E 013°39'1111.2
2014-Jul-14 02:33N 38°11' E 013°53'1211.2
2014-Jul-14 01:31N 38°12' E 014°08'  

Dump ship's entire track history